GW0378 Weather Reports


time (UTC)temp
C
wind
direction
speed
KPH
gust
KPH
rain 1hr
cm
rain 24hr
cm
rain mn
cm
humidity
%
barometer
mb
20260901210122 28 48 3.2 6.4 0.00 0.00 0.00 28 1009.3
20260901205618 28 350 4.8 4.8 0.00 0.00 0.00 30 1009.4
20260901205117 27 270 1.6 8.0 0.00 0.00 0.00 30 1009.6
20260901204613 27 247 4.8 8.0 0.00 0.00 0.00 29 1009.6
20260901204108 27 261 6.4 8.0 0.00 0.00 0.00 30 1009.7
20260901203607 27 265 6.4 6.4 0.00 0.00 0.00 32 1009.5
20260901203102 26 281 4.8 8.0 0.00 0.00 0.00 32 1009.7
20260901202602 26 309 3.2 6.4 0.00 0.00 0.00 32 1009.9
20260901202059 26 276 3.2 6.4 0.00 0.00 0.00 31 1010.0
20260901201554 26 329 4.8 6.4 0.00 0.00 0.00 36 1010.1
20260901201053 26 270 0.0 3.2 0.00 0.00 0.00 33 1010.0
20260901200553 25 203 0.0 4.8 0.00 0.00 0.00 33 1010.3
20260901200048 25 297 3.2 4.8 0.00 0.00 0.00 34 1010.4
20260901195546 24 256 4.8 4.8 0.00 0.00 0.00 36 1010.4
20260901195046 24 23 1.6 4.8 0.00 0.00 0.00 34 1010.5
20260901194541 24 312 3.2 6.4 0.00 0.00 0.00 35 1010.5
20260901194037 24 266 4.8 8.0 0.00 0.00 0.00 36 1010.6
20260901193536 23 270 3.2 6.4 0.00 0.00 0.00 36 1010.8
20260901193031 23 252 4.8 8.0 0.00 0.00 0.00 37 1010.8
20260901192526 23 206 3.2 6.4 0.00 0.00 0.00 37 1011.1
20260901192022 23 332 3.2 6.4 0.00 0.00 0.00 36 1011.3
20260901191518 23 251 8.0 8.0 0.00 0.00 0.00 38 1011.1
20260901191014 22 243 3.2 6.4 0.00 0.00 0.00 39 1011.5
20260901190509 22 290 3.2 6.4 0.00 0.00 0.00 40 1011.6
20260901190008 21 282 6.4 6.4 0.00 0.00 0.00 39 1011.6
20260901185501 22 253 4.8 8.0 0.00 0.00 0.00 42 1011.9
20260901185001 21 299 4.8 6.4 0.00 0.00 0.00 41 1012.0
20260901184456 21 303 3.2 8.0 0.00 0.00 0.00 40 1012.1
20260901183951 21 103 1.6 3.2 0.00 0.00 0.00 40 1012.1
20260901183445 21 273 4.8 8.0 0.00 0.00 0.00 43 1012.3
20260901182941 21 270 4.8 4.8 0.00 0.00 0.00 43 1012.1
20260901182437 20 324 3.2 4.8 0.00 0.00 0.00 43 1012.5
20260901181931 20 275 4.8 6.4 0.00 0.00 0.00 42 1012.6
20260901181426 20 305 4.8 4.8 0.00 0.00 0.00 45 1012.6
20260901180925 19 273 4.8 8.0 0.00 0.00 0.00 43 1012.6
20260901180424 19 346 4.8 4.8 0.00 0.00 0.00 44 1012.9
20260901175922 19 309 4.8 4.8 0.00 0.00 0.00 44 1012.9
20260901175418 18 276 3.2 6.4 0.00 0.00 0.00 44 1013.2
20260901174913 18 266 4.8 6.4 0.00 0.00 0.00 44 1013.2
20260901174409 18 194 0.0 4.8 0.00 0.00 0.00 43 1013.2
20260901173904 18 276 4.8 6.4 0.00 0.00 0.00 45 1013.4
20260901173359 17 273 6.4 8.0 0.00 0.00 0.00 46 1013.2
20260901172855 18 238 4.8 6.4 0.00 0.00 0.00 45 1013.4
20260901172355 18 197 3.2 3.2 0.00 0.00 0.00 43 1013.6
20260901171853 17 341 3.2 4.8 0.00 0.00 0.00 46 1013.8
20260901171352 16 337 4.8 9.7 0.00 0.00 0.00 48 1013.8
20260901170851 16 206 3.2 4.8 0.00 0.00 0.00 48 1013.8
20260901170346 16 285 4.8 8.0 0.00 0.00 0.00 49 1013.9
20260901165846 16 323 8.0 8.0 0.00 0.00 0.00 50 1013.8
20260901165340 16 276 6.4 8.0 0.00 0.00 0.00 50 1014.0
20260901164837 17 307 6.4 9.7 0.00 0.00 0.00 48 1014.0
20260901164331 16 266 6.4 8.0 0.00 0.00 0.00 49 1014.0
20260901163826 16 21 3.2 6.4 0.00 0.00 0.00 49 1013.9
20260901163321 15 312 3.2 4.8 0.00 0.00 0.00 56 1014.0
20260901162816 15 285 0.0 4.8 0.00 0.00 0.00 52 1014.1
20260901162315 15 306 0.0 4.8 0.00 0.00 0.00 55 1014.2
20260901161814 15 160 0.0 4.8 0.00 0.00 0.00 54 1014.4
20260901161308 14 255 3.2 6.4 0.00 0.00 0.00 57 1014.6
20260901160804 14 279 3.2 4.8 0.00 0.00 0.00 57 1014.2
20260901160301 14 220 3.2 4.8 0.00 0.00 0.00 57 1014.5
20260901155759 13 14 3.2 6.4 0.00 0.00 0.00 59 1014.1
20260901155254 13 264 0.0 6.4 0.00 0.00 0.00 60 1014.4
20260901154750 13 261 3.2 6.4 0.00 0.00 0.00 60 1014.2
20260901154244 14 342 1.6 4.8 0.00 0.00 0.00 56 1014.5
20260901153739 13 26 4.8 4.8 0.00 0.00 0.00 60 1014.4
20260901153239 12 47 4.8 4.8 0.00 0.00 0.00 61 1014.6
20260901152738 12 19 4.8 4.8 0.00 0.00 0.00 63 1014.7
20260901152237 12 0 4.8 4.8 0.00 0.00 0.00 63 1014.7
20260901151732 12 348 3.2 4.8 0.00 0.00 0.00 61 1014.5
20260901151227 12 335 4.8 4.8 0.00 0.00 0.00 61 1014.4
20260901150726 12 20 4.8 4.8 0.00 0.00 0.00 60 1014.7
20260901150225 12 24 3.2 4.8 0.00 0.00 0.00 62 1014.7
20260901145723 12 19 3.2 6.4 0.00 0.00 0.00 63 1014.7
20260901145222 12 30 3.2 4.8 0.00 0.00 0.00 63 1014.6
20260901144718 12 4 3.2 3.2 0.00 0.00 0.00 62 1015.0
20260901144213 12 36 3.2 3.2 0.00 0.00 0.00 62 1014.7
20260901143708 13 90 0.0 4.8 0.00 0.00 0.00 59 1014.6
20260901143205 12 66 0.0 3.2 0.00 0.00 0.00 62 1014.6
20260901142701 12 23 3.2 3.2 0.00 0.00 0.00 63 1014.8
20260901142200 12 95 0.0 3.2 0.00 0.00 0.00 63 1014.8
20260901141655 11 82 3.2 6.4 0.00 0.00 0.00 64 1014.6
20260901141155 10 107 3.2 4.8 0.00 0.00 0.00 67 1014.6
20260901140654 10 90 4.8 6.4 0.00 0.00 0.00 70 1014.4
20260901140153 10 98 0.0 1.6 0.00 0.00 0.00 70 1014.7
20260901135648 9 45 3.2 3.2 0.00 0.00 0.00 72 1014.6
20260901135142 9 59 3.2 3.2 0.00 0.00 0.00 69 1014.4
20260901134638 9 59 3.2 3.2 0.00 0.00 0.00 70 1014.2
20260901134133 8 53 3.2 3.2 0.00 0.00 0.00 70 1014.4
20260901133632 8 74 3.2 3.2 0.00 0.00 0.00 70 1014.1
20260901133131 8 14 0.0 4.8 0.00 0.00 0.00 69 1014.1
20260901132626 9 66 0.0 3.2 0.00 0.00 0.00 67 1014.1
20260901132125 10 90 3.2 8.0 0.00 0.00 0.00 66 1014.1
20260901131620 10 117 3.2 8.0 0.00 0.00 0.00 65 1014.1
20260901131114 10 106 6.4 8.0 0.00 0.00 0.00 65 1014.0
20260901130609 10 115 3.2 6.4 0.00 0.00 0.00 63 1013.8
20260901130108 10 121 3.2 6.4 0.00 0.00 0.00 65 1013.9
20260901125606 10 106 4.8 11.3 0.00 0.00 0.00 63 1013.9
20260901125101 10 119 8.0 14.5 0.00 0.00 0.00 63 1013.7
20260901124556 10 125 3.2 8.0 0.00 0.00 0.00 66 1013.8
20260901124051 9 145 1.6 4.8 0.00 0.00 0.00 67 1013.8
20260901123545 9 157 0.0 6.4 0.00 0.00 0.00 66 1013.7
20260901123045 9 90 1.6 4.8 0.00 0.00 0.00 67 1013.6
20260901122544 10 114 1.6 4.8 0.00 0.00 0.00 66 1013.7
20260901122044 10 127 3.2 4.8 0.00 0.00 0.00 65 1013.8
20260901121544 10 114 0.0 3.2 0.00 0.00 0.00 64 1013.8
20260901121039 10 66 0.0 4.8 0.00 0.00 0.00 64 1013.9
20260901120539 10 168 3.2 3.2 0.00 0.00 0.00 65 1013.8
20260901120035 10 157 0.0 4.8 0.00 0.00 0.00 63 1013.7
20260901115530 10 112 3.2 11.3 0.00 0.00 0.00 62 1013.7
20260901115027 10 117 8.0 11.3 0.00 0.00 0.00 61 1013.8
20260901114523 11 109 8.0 11.3 0.00 0.00 0.00 61 1013.8
20260901114021 11 106 4.8 9.7 0.00 0.00 0.00 60 1013.9
20260901113520 11 95 8.0 11.3 0.00 0.00 0.00 60 1013.9
20260901113016 11 113 4.8 11.3 0.00 0.00 0.00 60 1013.9
20260901112510 11 85 9.7 12.9 0.00 0.00 0.00 60 1013.8
20260901112005 11 109 9.7 12.9 0.00 0.00 0.00 61 1013.8
20260901111504 10 107 6.4 12.9 0.00 0.00 0.00 61 1013.9
20260901111002 10 75 4.8 12.9 0.00 0.00 0.00 62 1014.0
20260901110458 10 106 11.3 14.5 0.00 0.00 0.00 61 1013.7
20260901105954 10 78 1.6 4.8 0.00 0.00 0.00 64 1013.7
20260901105450 10 127 3.2 6.4 0.00 0.00 0.00 62 1013.9
20260901104950 10 120 4.8 4.8 0.00 0.00 0.00 64 1013.6
20260901104445 10 120 1.6 4.8 0.00 0.00 0.00 63 1013.8
20260901103941 10 116 4.8 6.4 0.00 0.00 0.00 63 1013.6
20260901103440 10 103 1.6 4.8 0.00 0.00 0.00 65 1013.5
20260901102936 10 101 3.2 3.2 0.00 0.00 0.00 63 1013.6
20260901102430 11 96 3.2 3.2 0.00 0.00 0.00 61 1013.6
20260901101925 10 81 3.2 4.8 0.00 0.00 0.00 62 1013.8
20260901101420 11 99 0.0 3.2 0.00 0.00 0.00 62 1013.5
20260901100914 11 140 3.2 4.8 0.00 0.00 0.00 62 1013.5
20260901100409 11 101 4.8 6.4 0.00 0.00 0.00 60 1013.4
20260901095902 11 94 4.8 8.0 0.00 0.00 0.00 60 1013.8
20260901095400 11 90 4.8 9.7 0.00 0.00 0.00 57 1013.5
20260901094854 11 93 4.8 6.4 0.00 0.00 0.00 60 1013.5
20260901094348 11 84 4.8 6.4 0.00 0.00 0.00 61 1013.5
20260901093844 11 81 4.8 6.4 0.00 0.00 0.00 60 1013.5
20260901093343 11 68 4.8 8.0 0.00 0.00 0.00 59 1013.7
20260901092839 11 96 8.0 8.0 0.00 0.00 0.00 62 1013.5
20260901092334 11 96 4.8 6.4 0.00 0.00 0.00 61 1013.5
20260901091831 11 94 4.8 6.4 0.00 0.00 0.00 61 1013.4
20260901091330 11 112 3.2 6.4 0.00 0.00 0.00 61 1013.5
20260901090825 12 107 4.8 4.8 0.00 0.00 0.00 58 1013.5
20260901090320 11 109 3.2 6.4 0.00 0.00 0.00 60 1013.4
20260901085816 11 103 6.4 8.0 0.00 0.00 0.00 60 1013.5
20260901085316 12 105 1.6 4.8 0.00 0.00 0.00 59 1013.5
20260901084813 12 111 1.6 3.2 0.00 0.00 0.00 59 1013.6
20260901084309 12 103 3.2 4.8 0.00 0.00 0.00 58 1013.6
20260901083808 12 139 3.2 3.2 0.00 0.00 0.00 57 1013.7
20260901083303 12 154 3.2 3.2 0.00 0.00 0.00 58 1013.8
20260901082801 12 90 0.0 3.2 0.00 0.00 0.00 58 1013.7
20260901082257 12 112 3.2 4.8 0.00 0.00 0.00 57 1013.7
20260901081752 12 68 3.2 4.8 0.00 0.00 0.00 57 1013.6
20260901081252 12 126 0.0 3.2 0.00 0.00 0.00 55 1013.5
20260901080747 12 139 3.2 4.8 0.00 0.00 0.00 57 1013.5
20260901080246 12 74 0.0 3.2 0.00 0.00 0.00 55 1013.7
20260901075740 13 117 1.6 4.8 0.00 0.00 0.00 54 1013.7
20260901075235 13 90 1.6 1.6 0.00 0.00 0.00 52 1013.6
20260901074730 14 74 3.2 3.2 0.00 0.00 0.00 50 1013.6
20260901074225 13 96 4.8 6.4 0.00 0.00 0.00 50 1013.6
20260901073722 13 98 0.0 1.6 0.00 0.00 0.00 52 1013.7
20260901073217 14 114 3.2 8.0 0.00 0.00 0.00 50 1013.5
20260901072712 15 73 6.4 9.7 0.00 0.00 0.00 49 1013.5
20260901072207 15 111 6.4 11.3 0.00 0.00 0.00 48 1013.5
20260901071707 15 188 0.0 12.9 0.00 0.00 0.00 49 1013.5
20260901071201 15 171 0.0 8.0 0.00 0.00 0.00 49 1013.7
20260901070655 13 86 3.2 3.2 0.00 0.00 0.00 51 1013.6
20260901070150 13 106 0.0 3.2 0.00 0.00 0.00 54 1013.6
20260901065649 14 151 0.0 3.2 0.00 0.00 0.00 51 1013.5
20260901065144 13 84 3.2 6.4 0.00 0.00 0.00 53 1013.7
20260901064641 14 120 0.0 4.8 0.00 0.00 0.00 51 1013.4
20260901064137 15 102 3.2 3.2 0.00 0.00 0.00 49 1013.5
20260901063635 15 90 3.2 14.5 0.00 0.00 0.00 47 1013.6
20260901063130 15 78 8.0 11.3 0.00 0.00 0.00 48 1013.4
20260901062625 14 125 4.8 9.7 0.00 0.00 0.00 50 1013.5
20260901062121 15 112 4.8 11.3 0.00 0.00 0.00 51 1013.4
20260901061617 15 103 14.5 14.5 0.00 0.00 0.00 47 1013.6
20260901061111 15 104 9.7 12.9 0.00 0.00 0.00 48 1013.4
20260901060606 13 113 6.4 9.7 0.00 0.00 0.00 54 1013.6
20260901055556 14 107 4.8 8.0 0.00 0.00 0.00 51 1013.5
20260901055053 15 157 0.0 3.2 0.00 0.00 0.00 49 1013.6
20260901054550 14 115 3.2 6.4 0.00 0.00 0.00 51 1013.7
20260901054045 15 151 0.0 3.2 0.00 0.00 0.00 47 1013.6
20260901053542 15 144 0.0 4.8 0.00 0.00 0.00 50 1013.7
20260901053037 15 135 3.2 6.4 0.00 0.00 0.00 49 1013.5
20260901052537 15 123 3.2 4.8 0.00 0.00 0.00 49 1013.7
20260901052032 15 112 3.2 3.2 0.00 0.00 0.00 50 1013.5
20260901051527 15 129 3.2 6.4 0.00 0.00 0.00 48 1013.6
20260901051026 16 103 6.4 8.0 0.00 0.00 0.00 44 1013.5
20260901050521 16 112 4.8 6.4 0.00 0.00 0.00 44 1013.6
20260901050016 15 125 8.0 8.0 0.00 0.00 0.00 46 1013.7
20260901045511 16 100 6.4 8.0 0.00 0.00 0.00 46 1013.5
20260901045006 16 90 6.4 8.0 0.00 0.00 0.00 45 1013.6
20260901044502 16 110 9.7 11.3 0.00 0.00 0.00 44 1013.6
20260901043957 16 123 3.2 8.0 0.00 0.00 0.00 44 1013.6
20260901043453 16 113 6.4 12.9 0.00 0.00 0.00 45 1013.7
20260901042948 16 123 6.4 8.0 0.00 0.00 0.00 47 1013.7
20260901042447 16 83 6.4 9.7 0.00 0.00 0.00 44 1013.7
20260901041943 16 107 9.7 9.7 0.00 0.00 0.00 44 1013.8
20260901041438 17 87 4.8 9.7 0.00 0.00 0.00 43 1013.6
20260901040937 17 96 8.0 11.3 0.00 0.00 0.00 44 1013.8
20260901040432 16 111 4.8 6.4 0.00 0.00 0.00 45 1013.5
20260901035931 16 85 4.8 9.7 0.00 0.00 0.00 44 1013.7
20260901035430 16 111 4.8 4.8 0.00 0.00 0.00 44 1013.7
20260901034929 16 107 6.4 6.4 0.00 0.00 0.00 44 1013.8
20260901034424 17 103 6.4 8.0 0.00 0.00 0.00 43 1013.6
20260901033919 17 106 4.8 6.4 0.00 0.00 0.00 42 1013.7
20260901033418 18 111 6.4 11.3 0.00 0.00 0.00 40 1013.6
20260901032916 17 110 4.8 8.0 0.00 0.00 0.00 42 1013.8
20260901032416 18 107 4.8 4.8 0.00 0.00 0.00 41 1013.8
20260901031911 18 115 3.2 4.8 0.00 0.00 0.00 41 1013.6
20260901031407 19 194 0.0 0.0 0.00 0.00 0.00 39 1013.7
20260901030906 20 215 0.0 4.8 0.00 0.00 0.00 38 1013.6
20260901030402 20 133 4.8 12.9 0.00 0.00 0.00 37 1013.5
20260901025901 20 125 6.4 16.1 0.00 0.00 0.00 37 1013.5
20260901025356 20 128 6.4 11.3 0.00 0.00 0.00 38 1013.5
20260901024851 20 162 1.6 8.0 0.00 0.00 0.00 36 1013.5
20260901024350 20 90 3.2 9.7 0.00 0.00 0.00 37 1013.2
20260901023848 20 90 6.4 8.0 0.00 0.00 0.00 37 1013.1
20260901023344 20 109 4.8 6.4 0.00 0.00 0.00 37 1013.2
20260901022838 20 90 4.8 8.0 0.00 0.00 0.00 36 1013.1
20260901022335 21 112 4.8 8.0 0.00 0.00 0.00 37 1013.1
20260901021830 21 111 4.8 4.8 0.00 0.00 0.00 38 1013.1
20260901021325 21 121 3.2 4.8 0.00 0.00 0.00 39 1013.1
20260901020820 21 128 3.2 3.2 0.00 0.00 0.00 40 1013.2
20260901020315 22 180 0.0 0.0 0.00 0.00 0.00 39 1012.9
20260901015809 22 180 0.0 0.0 0.00 0.00 0.00 39 1013.2
20260901015306 23 188 0.0 3.2 0.00 0.00 0.00 34 1012.9
20260901014805 24 240 0.0 1.6 0.00 0.00 0.00 34 1012.8
20260901014301 25 254 0.0 3.2 0.00 0.00 0.00 32 1012.9
20260901013757 25 213 3.2 3.2 0.00 0.00 0.00 31 1012.9
20260901013252 25 180 0.0 3.2 0.00 0.00 0.00 30 1012.8
20260901012747 26 185 0.0 3.2 0.00 0.00 0.00 30 1012.9
20260901012247 26 195 0.0 3.2 0.00 0.00 0.00 30 1013.0
20260901011743 26 285 1.6 4.8 0.00 0.00 0.00 28 1012.9
20260901011238 26 263 4.8 6.4 0.00 0.00 0.00 29 1012.7
20260901010732 27 266 4.8 4.8 0.00 0.00 0.00 27 1012.9
20260901010227 26 245 6.4 6.4 0.00 0.00 0.00 28 1013.0
20260901005725 27 297 0.0 3.2 0.00 0.00 0.00 29 1012.8
20260901005221 27 303 3.2 6.4 0.00 0.00 0.00 28 1012.9
20260901004720 27 270 4.8 6.4 0.00 0.00 0.00 27 1012.9
20260901004210 27 274 3.2 8.0 0.00 0.00 0.00 26 1013.2
20260901003709 27 261 0.0 3.2 0.00 0.00 0.00 27 1013.4
20260901003209 27 262 4.8 6.4 0.00 0.00 0.00 25 1013.4
20260901002703 27 287 3.2 3.2 0.00 0.00 0.00 26 1013.2
20260901002158 27 285 3.2 8.0 0.00 0.00 0.00 26 1013.4
20260901001653 27 325 0.0 4.8 0.00 0.00 0.00 26 1013.5
20260901001148 27 290 3.2 8.0 0.00 0.00 0.00 26 1013.6
20260901000644 27 278 3.2 8.0 0.00 0.00 0.00 26 1013.6
20260901000139 26 270 0.0 9.7 0.00 0.00 0.00 25 1013.6
20260831235633 27 257 6.4 9.7 0.00 0.00 0.00 26 1013.6
20260831235128 27 266 3.2 4.8 0.00 0.00 0.00 25 1013.7
20260831234627 27 286 1.6 4.8 0.00 0.00 0.00 25 1013.6
20260831234123 27 350 3.2 6.4 0.00 0.00 0.00 27 1013.9
20260831233618 27 29 0.0 6.4 0.00 0.00 0.00 26 1013.8
20260831233113 27 187 1.6 6.4 0.00 0.00 0.00 25 1014.0
20260831232609 27 245 3.2 6.4 0.00 0.00 0.00 26 1014.0
20260831232104 27 31 4.8 6.4 0.00 0.00 0.00 26 1013.9
20260831231601 26 21 3.2 4.8 0.00 0.00 0.00 26 1014.1
20260831231056 27 264 0.0 3.2 0.00 0.00 0.00 25 1014.6
20260831230552 27 250 4.8 4.8 0.00 0.00 0.00 26 1014.4
20260831230052 26 334 0.0 4.8 0.00 0.00 0.00 26 1014.2
20260831225547 26 279 4.8 9.7 0.00 0.00 0.00 28 1014.5
20260831225041 26 277 6.4 9.7 0.00 0.00 0.00 26 1014.6
20260831224537 26 35 0.0 4.8 0.00 0.00 0.00 26 1014.8
20260831224032 26 41 3.2 6.4 0.00 0.00 0.00 28 1014.6
20260831223527 25 234 1.6 6.4 0.00 0.00 0.00 26 1014.8
20260831223024 25 270 8.0 9.7 0.00 0.00 0.00 28 1014.8
20260831222520 25 82 4.8 6.4 0.00 0.00 0.00 27 1014.9
20260831222019 25 347 4.8 6.4 0.00 0.00 0.00 27 1015.0
20260831221515 25 0 1.6 8.0 0.00 0.00 0.00 28 1015.0
20260831221010 25 335 6.4 6.4 0.00 0.00 0.00 27 1015.0
20260831220505 25 65 0.0 4.8 0.00 0.00 0.00 26 1015.1
20260831220000 25 228 3.2 8.0 0.00 0.00 0.00 28 1015.5
20260831215456 25 9 4.8 8.0 0.00 0.00 0.00 27 1015.2
20260831214952 25 292 4.8 8.0 0.00 0.00 0.00 28 1015.5
20260831214449 24 328 4.8 14.5 0.00 0.00 0.00 29 1015.6
20260831213945 25 255 0.0 6.4 0.00 0.00 0.00 28 1015.7
20260831213441 24 306 1.6 11.3 0.00 0.00 0.00 27 1015.6
20260831212941 24 331 1.6 6.4 0.00 0.00 0.00 28 1015.8
20260831212437 25 306 8.0 8.0 0.00 0.00 0.00 30 1015.6
20260831211937 24 221 3.2 9.7 0.00 0.00 0.00 29 1015.7
20260831211432 23 251 6.4 6.4 0.00 0.00 0.00 29 1015.8
20260831210931 23 263 1.6 8.0 0.00 0.00 0.00 30 1016.2
20260831210427 23 285 3.2 11.3 0.00 0.00 0.00 29 1015.9